Time,TemperatureF,DewpointF,PressureIn,WindDirection,WindDirectionDegrees,WindSpeedMPH,WindSpeedGustMPH,Humidity,HourlyPrecipIn,Conditions,Clouds,dailyrainin,SoftwareType,DateUTC
2013-01-27 00:01:00,22.2,17.0,30.55,WNW,295,0.0,0.0,80,0.00,,,0.00,WeatherCatV1.02B3,2013-01-27 05:01:00,
2013-01-27 00:02:00,22.2,17.0,30.55,WNW,295,0.0,0.0,80,0.00,,,0.00,WeatherCatV1.02B3,2013-01-27 05:02:00,
2013-01-27 00:05:00,22.1,16.9,30.55,WNW,295,0.0,0.0,80,0.00,,,0.00,WeatherCatV1.02B3,2013-01-27 05:05:00,
2013-01-27 00:06:00,22.1,16.9,30.55,WNW,295,0.0,0.0,80,0.00,,,0.00,WeatherCatV1.02B3,2013-01-27 05:06:00,
2013-01-27 00:11:00,21.9,17.0,30.55,WNW,295,0.0,0.0,81,0.00,,,0.00,WeatherCatV1.02B3,2013-01-27 05:11:00,
2013-01-27 00:16:00,21.7,16.8,30.56,WNW,295,0.0,0.0,81,0.00,,,0.00,WeatherCatV1.02B3,2013-01-27 05:16:00,
2013-01-27 00:21:00,21.5,16.6,30.55,WNW,295,0.0,0.0,81,0.00,,,0.00,WeatherCatV1.02B3,2013-01-27 05:21:00,
2013-01-27 00:26:00,21.4,16.5,30.56,WNW,295,0.0,0.0,81,0.00,,,0.00,WeatherCatV1.02B3,2013-01-27 05:26:00,
2013-01-27 00:31:00,21.4,16.8,30.56,WNW,295,0.0,0.0,82,0.00,,,0.00,WeatherCatV1.02B3,2013-01-27 05:31:00,
2013-01-27 00:36:00,21.3,16.7,30.56,WNW,295,0.0,0.0,82,0.00,,,0.00,WeatherCatV1.02B3,2013-01-27 05:36:00,
2013-01-27 00:41:00,21.3,16.7,30.56,WNW,295,0.0,0.0,82,0.00,,,0.00,WeatherCatV1.02B3,2013-01-27 05:41:00,
2013-01-27 00:46:00,21.3,17.0,30.56,WNW,295,0.0,0.0,83,0.00,,,0.00,WeatherCatV1.02B3,2013-01-27 05:46:00,
2013-01-27 00:51:00,21.6,17.3,30.55,WNW,295,0.0,0.0,83,0.00,,,0.00,WeatherCatV1.02B3,2013-01-27 05:51:00,
2013-01-27 00:56:00,21.6,17.3,30.55,WNW,295,0.0,0.0,83,0.00,,,0.00,WeatherCatV1.02B3,2013-01-27 05:56:00,
2013-01-27 01:01:00,21.7,17.3,30.55,WNW,295,0.0,0.0,83,0.00,,,0.00,WeatherCatV1.02B3,2013-01-27 06:01:00,
2013-01-27 01:06:00,21.6,17.5,30.55,WNW,295,0.0,0.0,84,0.00,,,0.00,WeatherCatV1.02B3,2013-01-27 06:06:00,
2013-01-27 01:11:00,21.5,17.4,30.55,WNW,295,0.0,0.0,84,0.00,,,0.00,WeatherCatV1.02B3,2013-01-27 06:11:00,
2013-01-27 01:16:00,21.4,17.3,30.56,WNW,295,0.0,0.0,84,0.00,,,0.00,WeatherCatV1.02B3,2013-01-27 06:16:00,
2013-01-27 01:21:00,21.4,17.3,30.56,WNW,295,0.0,0.0,84,0.00,,,0.00,WeatherCatV1.02B3,2013-01-27 06:21:00,
2013-01-27 01:26:00,21.6,17.5,30.56,WNW,295,0.0,0.0,84,0.00,,,0.00,WeatherCatV1.02B3,2013-01-27 06:26:00,
2013-01-27 01:31:00,21.5,17.4,30.57,WNW,295,0.0,0.0,84,0.00,,,0.00,WeatherCatV1.02B3,2013-01-27 06:31:00,
2013-01-27 01:36:00,21.2,17.1,30.57,WNW,295,0.0,0.0,84,0.00,,,0.00,WeatherCatV1.02B3,2013-01-27 06:36:00,
2013-01-27 01:41:00,21.2,17.1,30.57,WNW,295,0.0,0.0,84,0.00,,,0.00,WeatherCatV1.02B3,2013-01-27 06:41:00,
2013-01-27 01:46:00,21.2,17.1,30.57,WNW,295,0.0,0.0,84,0.00,,,0.00,WeatherCatV1.02B3,2013-01-27 06:46:00,
2013-01-27 01:51:00,21.2,17.1,30.57,WNW,295,0.0,0.0,84,0.00,,,0.00,WeatherCatV1.02B3,2013-01-27 06:51:00,
2013-01-27 01:56:00,21.0,16.9,30.57,WNW,295,0.0,0.0,84,0.00,,,0.00,WeatherCatV1.02B3,2013-01-27 06:56:00,
2013-01-27 02:01:00,21.0,16.9,30.57,WNW,295,0.0,0.0,84,0.00,,,0.00,WeatherCatV1.02B3,2013-01-27 07:01:00,
2013-01-27 02:06:00,20.8,16.7,30.58,WNW,295,0.0,0.0,84,0.00,,,0.00,WeatherCatV1.02B3,2013-01-27 07:06:00,
2013-01-27 02:13:00,20.9,17.1,30.58,WNW,295,0.0,0.0,85,0.00,,,0.00,WeatherCatV1.02B3,2013-01-27 07:13:00,
2013-01-27 02:18:00,21.0,17.2,30.59,WNW,295,0.0,0.0,85,0.00,,,0.00,WeatherCatV1.02B3,2013-01-27 07:18:00,
2013-01-27 02:23:00,21.0,17.2,30.59,WNW,295,0.0,0.0,85,0.00,,,0.00,WeatherCatV1.02B3,2013-01-27 07:23:00,
2013-01-27 02:28:00,21.1,17.3,30.59,WNW,295,0.0,0.0,85,0.00,,,0.00,WeatherCatV1.02B3,2013-01-27 07:28:00,
2013-01-27 02:33:00,21.1,17.3,30.59,WNW,295,0.0,0.0,85,0.00,,,0.00,WeatherCatV1.02B3,2013-01-27 07:33:00,
2013-01-27 02:38:00,21.2,17.4,30.59,WNW,295,0.0,0.0,85,0.00,,,0.00,WeatherCatV1.02B3,2013-01-27 07:38:00,
2013-01-27 02:43:00,21.5,17.7,30.60,WNW,295,0.0,0.0,85,0.00,,,0.00,WeatherCatV1.02B3,2013-01-27 07:43:00,
2013-01-27 02:48:00,21.7,17.9,30.60,WNW,295,0.0,0.0,85,0.00,,,0.00,WeatherCatV1.02B3,2013-01-27 07:48:00,
2013-01-27 02:53:00,21.8,18.0,30.60,WNW,295,0.0,0.0,85,0.00,,,0.00,WeatherCatV1.02B3,2013-01-27 07:53:00,
2013-01-27 02:58:00,21.8,18.0,30.60,WNW,295,0.0,0.0,85,0.00,,,0.00,WeatherCatV1.02B3,2013-01-27 07:58:00,
2013-01-27 03:03:00,21.9,18.1,30.60,WNW,295,0.0,0.0,85,0.00,,,0.00,WeatherCatV1.02B3,2013-01-27 08:03:00,
2013-01-27 03:08:00,21.8,18.0,30.60,WNW,295,0.0,0.0,85,0.00,,,0.00,WeatherCatV1.02B3,2013-01-27 08:08:00,
2013-01-27 03:13:00,21.9,18.1,30.60,WNW,295,0.0,0.0,85,0.00,,,0.00,WeatherCatV1.02B3,2013-01-27 08:13:00,
2013-01-27 03:18:00,21.9,18.1,30.59,WNW,295,0.0,0.0,85,0.00,,,0.00,WeatherCatV1.02B3,2013-01-27 08:18:00,
2013-01-27 03:23:00,21.8,18.0,30.59,WNW,295,0.0,0.0,85,0.00,,,0.00,WeatherCatV1.02B3,2013-01-27 08:23:00,
2013-01-27 03:28:00,21.8,18.0,30.58,WNW,295,0.0,0.0,85,0.00,,,0.00,WeatherCatV1.02B3,2013-01-27 08:28:00,
2013-01-27 03:33:00,21.7,17.9,30.58,WNW,295,0.0,0.0,85,0.00,,,0.00,WeatherCatV1.02B3,2013-01-27 08:33:00,
2013-01-27 03:38:00,21.7,17.9,30.58,WNW,295,0.0,0.0,85,0.00,,,0.00,WeatherCatV1.02B3,2013-01-27 08:38:00,
2013-01-27 03:43:00,21.8,18.0,30.58,WNW,295,0.0,0.0,85,0.00,,,0.00,WeatherCatV1.02B3,2013-01-27 08:43:00,
2013-01-27 03:48:00,21.7,17.9,30.58,WNW,295,0.0,0.0,85,0.00,,,0.00,WeatherCatV1.02B3,2013-01-27 08:48:00,
2013-01-27 03:53:00,21.6,17.8,30.58,WNW,295,0.0,0.0,85,0.00,,,0.00,WeatherCatV1.02B3,2013-01-27 08:53:00,
2013-01-27 03:58:00,21.4,17.6,30.58,WNW,295,0.0,0.0,85,0.00,,,0.00,WeatherCatV1.02B3,2013-01-27 08:58:00,
2013-01-27 04:03:00,21.3,17.5,30.57,WNW,295,0.0,0.0,85,0.00,,,0.00,WeatherCatV1.02B3,2013-01-27 09:03:00,
2013-01-27 04:08:00,21.0,17.2,30.58,WNW,295,0.0,0.0,85,0.00,,,0.00,WeatherCatV1.02B3,2013-01-27 09:08:00,
2013-01-27 04:13:00,20.8,16.7,30.58,WNW,295,0.0,0.0,84,0.00,,,0.00,WeatherCatV1.02B3,2013-01-27 09:13:00,
2013-01-27 04:18:00,21.1,17.3,30.57,WNW,295,0.0,0.0,85,0.00,,,0.00,WeatherCatV1.02B3,2013-01-27 09:18:00,
2013-01-27 04:23:00,21.2,17.4,30.57,WNW,295,0.0,0.0,85,0.00,,,0.00,WeatherCatV1.02B3,2013-01-27 09:23:00,
2013-01-27 04:28:00,20.8,16.7,30.58,WNW,295,0.0,0.0,84,0.00,,,0.00,WeatherCatV1.02B3,2013-01-27 09:28:00,
2013-01-27 04:33:00,20.4,16.4,30.58,WNW,295,0.0,0.0,84,0.00,,,0.00,WeatherCatV1.02B3,2013-01-27 09:33:00,
2013-01-27 04:38:00,19.9,15.9,30.58,WNW,295,0.0,0.0,84,0.00,,,0.00,WeatherCatV1.02B3,2013-01-27 09:38:00,
2013-01-27 04:43:00,19.6,15.6,30.58,WNW,295,0.0,0.0,84,0.00,,,0.00,WeatherCatV1.02B3,2013-01-27 09:43:00,
2013-01-27 04:48:00,19.4,15.4,30.58,WNW,295,0.0,0.0,84,0.00,,,0.00,WeatherCatV1.02B3,2013-01-27 09:48:00,
2013-01-27 04:53:00,19.2,15.2,30.59,WNW,295,0.0,0.0,84,0.00,,,0.00,WeatherCatV1.02B3,2013-01-27 09:53:00,
2013-01-27 04:58:00,19.1,15.1,30.60,WNW,295,0.0,0.0,84,0.00,,,0.00,WeatherCatV1.02B3,2013-01-27 09:58:00,
2013-01-27 05:03:00,19.2,15.4,30.60,WNW,295,0.0,0.0,85,0.00,,,0.00,WeatherCatV1.02B3,2013-01-27 10:03:00,
2013-01-27 05:08:00,19.4,15.6,30.61,WNW,295,0.0,0.0,85,0.00,,,0.00,WeatherCatV1.02B3,2013-01-27 10:08:00,
2013-01-27 05:13:00,19.7,15.9,30.61,WNW,295,0.0,0.0,85,0.00,,,0.00,WeatherCatV1.02B3,2013-01-27 10:13:00,
2013-01-27 05:18:00,20.0,16.5,30.60,WNW,295,0.0,0.0,86,0.00,,,0.00,WeatherCatV1.02B3,2013-01-27 10:18:00,
2013-01-27 05:23:00,20.4,16.9,30.60,WNW,295,0.0,0.0,86,0.00,,,0.00,WeatherCatV1.02B3,2013-01-27 10:23:00,
2013-01-27 05:28:00,20.7,17.2,30.60,WNW,295,0.0,0.0,86,0.00,,,0.00,WeatherCatV1.02B3,2013-01-27 10:28:00,
2013-01-27 05:33:00,20.7,17.2,30.60,WNW,295,0.0,0.0,86,0.00,,,0.00,WeatherCatV1.02B3,2013-01-27 10:33:00,
2013-01-27 05:38:00,20.7,17.2,30.60,WNW,295,0.0,0.0,86,0.00,,,0.00,WeatherCatV1.02B3,2013-01-27 10:38:00,
2013-01-27 05:43:00,20.9,17.4,30.60,WNW,295,0.0,0.0,86,0.00,,,0.00,WeatherCatV1.02B3,2013-01-27 10:43:00,
2013-01-27 05:48:00,21.0,17.2,30.60,WNW,295,0.0,0.0,85,0.00,,,0.00,WeatherCatV1.02B3,2013-01-27 10:48:00,
2013-01-27 05:53:00,21.2,17.4,30.60,WNW,295,0.0,0.0,85,0.00,,,0.00,WeatherCatV1.02B3,2013-01-27 10:53:00,
2013-01-27 05:58:00,21.3,17.5,30.60,WNW,295,0.0,0.0,85,0.00,,,0.00,WeatherCatV1.02B3,2013-01-27 10:58:00,
2013-01-27 06:03:00,21.4,17.6,30.60,WNW,295,0.0,0.0,85,0.00,,,0.00,WeatherCatV1.02B3,2013-01-27 11:03:00,
2013-01-27 06:08:00,21.5,17.7,30.61,WNW,295,0.0,0.0,85,0.00,,,0.00,WeatherCatV1.02B3,2013-01-27 11:08:00,
2013-01-27 06:13:00,21.6,17.8,30.61,WNW,295,0.0,0.0,85,0.00,,,0.00,WeatherCatV1.02B3,2013-01-27 11:13:00,
2013-01-27 06:18:00,21.7,17.9,30.61,WNW,295,0.0,0.0,85,0.00,,,0.00,WeatherCatV1.02B3,2013-01-27 11:18:00,
2013-01-27 06:23:00,21.7,17.9,30.61,WNW,295,0.0,0.0,85,0.00,,,0.00,WeatherCatV1.02B3,2013-01-27 11:23:00,
2013-01-27 06:28:00,21.7,17.6,30.60,WNW,295,0.0,0.0,84,0.00,,,0.00,WeatherCatV1.02B3,2013-01-27 11:28:00,
2013-01-27 06:33:00,21.8,17.7,30.61,WNW,295,0.0,0.0,84,0.00,,,0.00,WeatherCatV1.02B3,2013-01-27 11:33:00,
2013-01-27 06:38:00,21.8,17.7,30.61,WNW,295,0.0,0.0,84,0.00,,,0.00,WeatherCatV1.02B3,2013-01-27 11:38:00,
2013-01-27 06:43:00,21.9,17.8,30.61,WNW,295,0.0,0.0,84,0.00,,,0.00,WeatherCatV1.02B3,2013-01-27 11:43:00,
2013-01-27 06:48:00,21.9,17.8,30.61,WNW,295,0.0,1.0,84,0.00,,,0.00,WeatherCatV1.02B3,2013-01-27 11:48:00,
2013-01-27 06:53:00,22.1,18.0,30.61,WNW,295,0.0,0.0,84,0.00,,,0.00,WeatherCatV1.02B3,2013-01-27 11:53:00,
2013-01-27 06:58:00,22.1,18.0,30.61,WNW,295,0.0,0.0,84,0.00,,,0.00,WeatherCatV1.02B3,2013-01-27 11:58:00,
2013-01-27 07:03:00,22.2,17.8,30.60,WNW,295,0.0,0.0,83,0.00,,,0.00,WeatherCatV1.02B3,2013-01-27 12:03:00,
2013-01-27 07:08:00,22.2,17.8,30.61,WNW,295,0.0,0.0,83,0.00,,,0.00,WeatherCatV1.02B3,2013-01-27 12:08:00,
2013-01-27 07:13:00,22.2,17.8,30.61,WNW,295,0.0,0.0,83,0.00,,,0.00,WeatherCatV1.02B3,2013-01-27 12:13:00,
2013-01-27 07:18:00,22.1,17.7,30.61,WNW,295,0.0,0.0,83,0.00,,,0.00,WeatherCatV1.02B3,2013-01-27 12:18:00,
2013-01-27 07:23:00,21.9,17.5,30.62,WNW,295,0.0,0.0,83,0.00,,,0.00,WeatherCatV1.02B3,2013-01-27 12:23:00,
2013-01-27 07:28:00,21.8,17.4,30.62,WNW,295,0.0,0.0,83,0.00,,,0.00,WeatherCatV1.02B3,2013-01-27 12:28:00,
2013-01-27 07:33:00,21.7,17.3,30.62,WNW,295,0.0,0.0,83,0.00,,,0.00,WeatherCatV1.02B3,2013-01-27 12:33:00,
2013-01-27 07:38:00,21.5,17.2,30.62,ESE,111,1.0,1.0,83,0.00,,,0.00,WeatherCatV1.02B3,2013-01-27 12:38:00,
2013-01-27 07:43:00,21.2,16.6,30.62,ESE,111,0.0,0.0,82,0.00,,,0.00,WeatherCatV1.02B3,2013-01-27 12:43:00,
2013-01-27 07:48:00,20.9,16.3,30.62,ESE,111,0.0,0.0,82,0.00,,,0.00,WeatherCatV1.02B3,2013-01-27 12:48:00,
2013-01-27 07:53:00,20.7,16.1,30.62,ESE,111,0.0,0.0,82,0.00,,,0.00,WeatherCatV1.02B3,2013-01-27 12:53:00,
2013-01-27 07:58:00,20.6,16.0,30.62,ESE,111,0.0,0.0,82,0.00,,,0.00,WeatherCatV1.02B3,2013-01-27 12:58:00,
2013-01-27 08:03:00,20.4,15.8,30.63,ESE,111,0.0,0.0,82,0.00,,,0.00,WeatherCatV1.02B3,2013-01-27 13:03:00,
2013-01-27 08:08:00,20.1,15.5,30.63,ESE,111,0.0,0.0,82,0.00,,,0.00,WeatherCatV1.02B3,2013-01-27 13:08:00,
2013-01-27 08:13:00,19.8,15.2,30.63,SE,126,0.0,1.0,82,0.00,,,0.00,WeatherCatV1.02B3,2013-01-27 13:13:00,
2013-01-27 08:18:00,19.8,15.2,30.63,SE,126,0.0,0.0,82,0.00,,,0.00,WeatherCatV1.02B3,2013-01-27 13:18:00,
2013-01-27 08:23:00,19.6,15.0,30.63,SE,126,0.0,0.0,82,0.00,,,0.00,WeatherCatV1.02B3,2013-01-27 13:23:00,
2013-01-27 08:28:00,19.6,15.0,30.63,SE,126,0.0,0.0,82,0.00,,,0.00,WeatherCatV1.02B3,2013-01-27 13:28:00,
2013-01-27 08:33:00,19.5,14.9,30.63,SE,126,0.0,0.0,82,0.00,,,0.00,WeatherCatV1.02B3,2013-01-27 13:33:00,
2013-01-27 08:38:00,19.4,14.8,30.63,SE,126,0.0,0.0,82,0.00,,,0.00,WeatherCatV1.02B3,2013-01-27 13:38:00,
2013-01-27 08:43:00,19.4,14.8,30.63,SE,126,0.0,1.0,82,0.00,,,0.00,WeatherCatV1.02B3,2013-01-27 13:43:00,
2013-01-27 08:48:00,19.6,15.3,30.63,SE,126,0.0,2.0,83,0.00,,,0.00,WeatherCatV1.02B3,2013-01-27 13:48:00,
2013-01-27 08:53:00,19.8,15.2,30.64,SE,126,1.0,1.0,82,0.00,,,0.00,WeatherCatV1.02B3,2013-01-27 13:53:00,
2013-01-27 08:58:00,20.5,15.9,30.63,ESE,118,1.0,3.0,82,0.00,,,0.00,WeatherCatV1.02B3,2013-01-27 13:58:00,
2013-01-27 09:03:00,21.1,16.5,30.63,SE,128,1.0,2.0,82,0.00,,,0.00,WeatherCatV1.02B3,2013-01-27 14:03:00,
2013-01-27 09:08:00,21.5,16.9,30.63,ESE,115,0.0,1.0,82,0.00,,,0.00,WeatherCatV1.02B3,2013-01-27 14:08:00,
2013-01-27 09:13:00,21.8,16.9,30.63,ESE,116,2.0,4.0,81,0.00,,,0.00,WeatherCatV1.02B3,2013-01-27 14:13:00,
2013-01-27 09:18:00,22.2,17.0,30.62,ESE,122,2.0,2.0,80,0.00,,,0.00,WeatherCatV1.02B3,2013-01-27 14:18:00,
2013-01-27 09:23:00,22.3,16.8,30.63,SSE,157,0.0,1.0,79,0.00,,,0.00,WeatherCatV1.02B3,2013-01-27 14:23:00,
2013-01-27 09:28:00,22.7,17.2,30.63,SSE,157,0.0,1.0,79,0.00,,,0.00,WeatherCatV1.02B3,2013-01-27 14:28:00,
2013-01-27 09:33:00,23.2,17.7,30.63,SSE,156,0.0,1.0,79,0.00,,,0.00,WeatherCatV1.02B3,2013-01-27 14:33:00,
2013-01-27 09:38:00,23.7,17.6,30.64,SSE,157,0.0,0.0,77,0.00,,,0.00,WeatherCatV1.02B3,2013-01-27 14:38:00,
2013-01-27 09:43:00,24.0,17.6,30.64,SSE,158,1.0,2.0,76,0.00,,,0.00,WeatherCatV1.02B3,2013-01-27 14:43:00,
2013-01-27 09:48:00,24.8,18.0,30.63,ESE,110,0.0,0.0,75,0.00,,,0.00,WeatherCatV1.02B3,2013-01-27 14:48:00,
2013-01-27 09:53:00,25.4,18.3,30.63,SE,140,0.0,2.0,74,0.00,,,0.00,WeatherCatV1.02B3,2013-01-27 14:53:00,
2013-01-27 09:58:00,25.6,18.2,30.63,ESE,109,2.0,3.0,73,0.00,,,0.00,WeatherCatV1.02B3,2013-01-27 14:58:00,
2013-01-27 10:03:00,25.9,18.5,30.63,SE,134,0.0,3.0,73,0.00,,,0.00,WeatherCatV1.02B3,2013-01-27 15:03:00,
2013-01-27 10:08:00,26.4,18.6,30.64,ESE,113,2.0,2.0,72,0.00,,,0.00,WeatherCatV1.02B3,2013-01-27 15:08:00,
2013-01-27 10:13:00,26.7,18.6,30.64,SE,132,0.0,3.0,71,0.00,,,0.00,WeatherCatV1.02B3,2013-01-27 15:13:00,
2013-01-27 10:18:00,26.8,18.4,30.64,ENE,70,1.0,3.0,70,0.00,,,0.00,WeatherCatV1.02B3,2013-01-27 15:18:00,
2013-01-27 10:23:00,27.1,18.6,30.65,SSW,200,0.0,3.0,70,0.00,,,0.00,WeatherCatV1.02B3,2013-01-27 15:23:00,
2013-01-27 10:28:00,26.7,18.3,30.65,SSW,211,0.0,5.0,70,0.00,,,0.00,WeatherCatV1.02B3,2013-01-27 15:28:00,
2013-01-27 10:33:00,26.8,18.4,30.64,SSW,202,1.0,4.0,70,0.00,,,0.00,WeatherCatV1.02B3,2013-01-27 15:33:00,
2013-01-27 10:38:00,27.2,18.4,30.64,ESE,106,3.0,5.0,69,0.00,,,0.00,WeatherCatV1.02B3,2013-01-27 15:38:00,
2013-01-27 10:43:00,27.6,18.4,30.64,East,91,3.0,6.0,68,0.00,,,0.00,WeatherCatV1.02B3,2013-01-27 15:43:00,
2013-01-27 10:48:00,27.6,18.4,30.64,SSW,197,0.0,3.0,68,0.00,,,0.00,WeatherCatV1.02B3,2013-01-27 15:48:00,
2013-01-27 10:53:00,28.2,19.0,30.64,SE,130,0.0,2.0,68,0.00,,,0.00,WeatherCatV1.02B3,2013-01-27 15:53:00,
2013-01-27 10:58:00,28.2,18.7,30.64,SE,127,3.0,5.0,67,0.00,,,0.00,WeatherCatV1.02B3,2013-01-27 15:58:00,
2013-01-27 11:03:00,28.1,18.6,30.64,ESE,109,0.0,4.0,67,0.00,,,0.00,WeatherCatV1.02B3,2013-01-27 16:03:00,
2013-01-27 11:08:00,28.3,18.8,30.64,SE,135,0.0,0.0,67,0.00,,,0.00,WeatherCatV1.02B3,2013-01-27 16:08:00,
2013-01-27 11:13:00,28.7,19.2,30.63,SE,130,0.0,3.0,67,0.00,,,0.00,WeatherCatV1.02B3,2013-01-27 16:13:00,
2013-01-27 11:18:00,28.9,19.0,30.63,SE,125,0.0,2.0,66,0.00,,,0.00,WeatherCatV1.02B3,2013-01-27 16:18:00,
2013-01-27 11:23:00,28.9,18.6,30.63,SE,130,2.0,4.0,65,0.00,,,0.00,WeatherCatV1.02B3,2013-01-27 16:23:00,
2013-01-27 11:28:00,28.7,18.4,30.62,SE,132,0.0,4.0,65,0.00,,,0.00,WeatherCatV1.02B3,2013-01-27 16:28:00,
2013-01-27 11:33:00,28.8,18.5,30.62,ESE,115,2.0,3.0,65,0.00,,,0.00,WeatherCatV1.02B3,2013-01-27 16:33:00,
2013-01-27 11:38:00,29.1,19.2,30.62,ESE,122,4.0,4.0,66,0.00,,,0.00,WeatherCatV1.02B3,2013-01-27 16:38:00,
2013-01-27 11:43:00,29.3,19.0,30.62,East,95,0.0,3.0,65,0.00,,,0.00,WeatherCatV1.02B3,2013-01-27 16:43:00,
2013-01-27 11:48:00,29.5,18.8,30.62,ESE,110,2.0,3.0,64,0.00,,,0.00,WeatherCatV1.02B3,2013-01-27 16:48:00,
2013-01-27 11:53:00,29.4,18.8,30.62,SE,133,5.0,5.0,64,0.00,,,0.00,WeatherCatV1.02B3,2013-01-27 16:53:00,
2013-01-27 11:58:00,29.5,19.2,30.61,SE,134,2.0,3.0,65,0.00,,,0.00,WeatherCatV1.02B3,2013-01-27 16:58:00,
2013-01-27 12:03:00,29.5,18.8,30.61,ESE,113,1.0,4.0,64,0.00,,,0.00,WeatherCatV1.02B3,2013-01-27 17:03:00,
2013-01-27 12:08:00,29.4,18.8,30.60,ESE,110,3.0,6.0,64,0.00,,,0.00,WeatherCatV1.02B3,2013-01-27 17:08:00,
2013-01-27 12:13:00,29.4,18.8,30.60,ESE,118,2.0,6.0,64,0.00,,,0.00,WeatherCatV1.02B3,2013-01-27 17:13:00,
2013-01-27 12:18:00,29.5,18.5,30.60,SE,128,0.0,6.0,63,0.00,,,0.00,WeatherCatV1.02B3,2013-01-27 17:18:00,
2013-01-27 12:23:00,29.9,18.9,30.60,SE,128,0.0,0.0,63,0.00,,,0.01,WeatherCatV1.02B3,2013-01-27 17:23:00,
2013-01-27 12:28:00,29.9,18.5,30.60,SSE,148,0.0,4.0,62,0.00,,,0.01,WeatherCatV1.02B3,2013-01-27 17:28:00,
2013-01-27 12:33:00,30.2,18.8,30.60,ESE,121,2.0,5.0,62,0.00,,,0.01,WeatherCatV1.02B3,2013-01-27 17:33:00,
2013-01-27 12:38:00,29.9,18.5,30.60,ESE,105,3.0,5.0,62,0.00,,,0.01,WeatherCatV1.02B3,2013-01-27 17:38:00,
2013-01-27 12:43:00,29.7,18.3,30.59,SSE,157,2.0,7.0,62,0.00,,,0.01,WeatherCatV1.02B3,2013-01-27 17:43:00,
2013-01-27 12:48:00,29.8,19.1,30.59,ESE,121,1.0,2.0,64,0.00,,,0.01,WeatherCatV1.02B3,2013-01-27 17:48:00,
2013-01-27 12:53:00,30.2,18.8,30.59,East,99,2.0,5.0,62,0.00,,,0.01,WeatherCatV1.02B3,2013-01-27 17:53:00,
2013-01-27 12:58:00,30.1,18.7,30.59,SSE,148,0.0,4.0,62,0.00,,,0.01,WeatherCatV1.02B3,2013-01-27 17:58:00,
2013-01-27 13:03:00,30.1,18.7,30.59,ESE,108,1.0,3.0,62,0.00,,,0.01,WeatherCatV1.02B3,2013-01-27 18:03:00,
2013-01-27 13:08:00,30.5,19.1,30.59,SE,136,2.0,6.0,62,0.00,,,0.01,WeatherCatV1.02B3,2013-01-27 18:08:00,
2013-01-27 13:13:00,30.7,18.9,30.59,SE,142,1.0,3.0,61,0.00,,,0.01,WeatherCatV1.02B3,2013-01-27 18:13:00,
2013-01-27 13:18:00,30.9,18.7,30.59,ESE,119,3.0,5.0,60,0.00,,,0.01,WeatherCatV1.02B3,2013-01-27 18:18:00,
2013-01-27 13:23:00,30.9,19.1,30.58,ESE,122,0.0,1.0,61,0.00,,,0.01,WeatherCatV1.02B3,2013-01-27 18:23:00,
2013-01-27 13:28:00,30.7,18.5,30.58,SE,141,0.0,5.0,60,0.00,,,0.01,WeatherCatV1.02B3,2013-01-27 18:28:00,
2013-01-27 13:33:00,30.7,18.9,30.58,SW,218,0.0,0.0,61,0.00,,,0.01,WeatherCatV1.02B3,2013-01-27 18:33:00,
2013-01-27 13:38:00,30.8,19.0,30.58,ESE,115,0.0,3.0,61,0.00,,,0.01,WeatherCatV1.02B3,2013-01-27 18:38:00,
2013-01-27 13:43:00,30.8,19.0,30.57,SE,141,0.0,4.0,61,0.00,,,0.01,WeatherCatV1.02B3,2013-01-27 18:43:00,
2013-01-27 13:48:00,30.9,19.1,30.57,SSW,205,0.0,4.0,61,0.00,,,0.01,WeatherCatV1.02B3,2013-01-27 18:48:00,
2013-01-27 13:53:00,30.8,19.3,30.57,ESE,107,4.0,5.0,62,0.00,,,0.01,WeatherCatV1.02B3,2013-01-27 18:53:00,
2013-01-27 13:58:00,31.0,19.1,30.57,ESE,115,1.0,5.0,61,0.00,,,0.01,WeatherCatV1.02B3,2013-01-27 18:58:00,
2013-01-27 14:03:00,31.2,19.3,30.57,SE,136,0.0,7.0,61,0.00,,,0.01,WeatherCatV1.02B3,2013-01-27 19:03:00,
2013-01-27 14:08:00,31.5,19.6,30.57,ESE,114,2.0,7.0,61,0.00,,,0.01,WeatherCatV1.02B3,2013-01-27 19:08:00,
2013-01-27 14:13:00,31.0,19.1,30.57,ESE,118,3.0,6.0,61,0.00,,,0.02,WeatherCatV1.02B3,2013-01-27 19:13:00,
2013-01-27 14:18:00,30.8,19.0,30.56,ESE,121,0.0,4.0,61,0.00,,,0.02,WeatherCatV1.02B3,2013-01-27 19:18:00,
2013-01-27 14:23:00,30.8,19.3,30.56,SE,125,4.0,5.0,62,0.00,,,0.02,WeatherCatV1.02B3,2013-01-27 19:23:00,
2013-01-27 14:28:00,30.8,19.7,30.56,ESE,109,0.0,3.0,63,0.00,,,0.02,WeatherCatV1.02B3,2013-01-27 19:28:00,
2013-01-27 14:33:00,30.8,19.7,30.56,ESE,113,3.0,5.0,63,0.00,,,0.02,WeatherCatV1.02B3,2013-01-27 19:33:00,
2013-01-27 14:38:00,30.8,19.7,30.56,SE,135,0.0,0.0,63,0.00,,,0.02,WeatherCatV1.02B3,2013-01-27 19:38:00,
2013-01-27 14:43:00,30.8,19.7,30.56,East,101,1.0,2.0,63,0.00,,,0.02,WeatherCatV1.02B3,2013-01-27 19:43:00,
2013-01-27 14:48:00,30.8,19.7,30.55,ESE,118,1.0,4.0,63,0.00,,,0.02,WeatherCatV1.02B3,2013-01-27 19:48:00,
2013-01-27 14:53:00,30.8,19.7,30.55,SE,130,3.0,6.0,63,0.00,,,0.02,WeatherCatV1.02B3,2013-01-27 19:53:00,
2013-01-27 14:58:00,30.8,20.1,30.54,ESE,109,0.0,2.0,64,0.00,,,0.02,WeatherCatV1.02B3,2013-01-27 19:58:00,
2013-01-27 15:04:00,30.9,20.2,30.54,ESE,122,2.0,2.0,64,0.00,,,0.02,WeatherCatV1.02B3,2013-01-27 20:04:00,
2013-01-27 15:09:00,31.0,19.9,30.54,SSE,148,1.0,3.0,63,0.00,,,0.02,WeatherCatV1.02B3,2013-01-27 20:09:00,
2013-01-27 15:14:00,31.1,20.0,30.55,SE,129,0.0,0.0,63,0.00,,,0.02,WeatherCatV1.02B3,2013-01-27 20:14:00,
2013-01-27 15:19:00,31.2,20.1,30.54,ESE,107,0.0,0.0,63,0.00,,,0.02,WeatherCatV1.02B3,2013-01-27 20:19:00,
2013-01-27 15:24:00,31.1,20.0,30.54,SE,129,1.0,4.0,63,0.00,,,0.02,WeatherCatV1.02B3,2013-01-27 20:24:00,
2013-01-27 15:29:00,31.0,19.9,30.54,ESE,119,1.0,3.0,63,0.00,,,0.02,WeatherCatV1.02B3,2013-01-27 20:29:00,
2013-01-27 15:34:00,30.9,19.4,30.53,ESE,109,0.0,0.0,62,0.00,,,0.02,WeatherCatV1.02B3,2013-01-27 20:34:00,
2013-01-27 15:39:00,31.0,19.5,30.53,SE,128,0.0,2.0,62,0.00,,,0.02,WeatherCatV1.02B3,2013-01-27 20:39:00,
2013-01-27 15:44:00,31.1,19.6,30.54,ESE,107,0.0,0.0,62,0.00,,,0.02,WeatherCatV1.02B3,2013-01-27 20:44:00,
2013-01-27 15:49:00,31.2,19.7,30.54,SE,130,0.0,1.0,62,0.00,,,0.02,WeatherCatV1.02B3,2013-01-27 20:49:00,
2013-01-27 15:55:00,31.2,19.7,30.53,SE,130,0.0,0.0,62,0.00,,,0.02,WeatherCatV1.02B3,2013-01-27 20:55:00,
2013-01-27 16:00:00,31.2,19.7,30.53,ESE,123,3.0,3.0,62,0.00,,,0.02,WeatherCatV1.02B3,2013-01-27 21:00:00,
2013-01-27 16:05:00,31.1,19.6,30.53,ESE,123,1.0,3.0,62,0.00,,,0.02,WeatherCatV1.02B3,2013-01-27 21:05:00,
2013-01-27 16:10:00,31.2,20.1,30.53,ESE,123,0.0,1.0,63,0.00,,,0.02,WeatherCatV1.02B3,2013-01-27 21:10:00,
2013-01-27 16:15:00,31.3,19.8,30.53,East,96,0.0,3.0,62,0.00,,,0.02,WeatherCatV1.02B3,2013-01-27 21:15:00,
2013-01-27 16:20:00,31.3,20.2,30.52,East,85,1.0,2.0,63,0.00,,,0.02,WeatherCatV1.02B3,2013-01-27 21:20:00,
2013-01-27 16:25:00,31.2,19.7,30.52,ESE,121,0.0,1.0,62,0.00,,,0.02,WeatherCatV1.02B3,2013-01-27 21:25:00,
2013-01-27 16:30:00,31.2,19.7,30.51,ESE,115,3.0,3.0,62,0.00,,,0.02,WeatherCatV1.02B3,2013-01-27 21:30:00,
2013-01-27 16:35:00,31.2,19.3,30.51,SE,131,0.0,4.0,61,0.00,,,0.02,WeatherCatV1.02B3,2013-01-27 21:35:00,
2013-01-27 16:40:00,31.2,19.7,30.51,ESE,111,0.0,3.0,62,0.00,,,0.02,WeatherCatV1.02B3,2013-01-27 21:40:00,
2013-01-27 16:45:00,31.2,19.7,30.51,SE,125,0.0,3.0,62,0.00,,,0.02,WeatherCatV1.02B3,2013-01-27 21:45:00,
2013-01-27 16:50:00,31.2,19.7,30.50,SE,146,3.0,3.0,62,0.00,,,0.02,WeatherCatV1.02B3,2013-01-27 21:50:00,
2013-01-27 16:55:00,31.1,19.6,30.50,SE,146,2.0,4.0,62,0.00,,,0.02,WeatherCatV1.02B3,2013-01-27 21:55:00,
2013-01-27 17:00:00,31.1,19.6,30.49,ESE,123,2.0,3.0,62,0.00,,,0.02,WeatherCatV1.02B3,2013-01-27 22:00:00,
2013-01-27 17:05:00,31.1,20.0,30.49,SE,125,0.0,2.0,63,0.00,,,0.02,WeatherCatV1.02B3,2013-01-27 22:05:00,
2013-01-27 17:11:00,31.1,20.0,30.49,SE,129,0.0,4.0,63,0.00,,,0.02,WeatherCatV1.02B3,2013-01-27 22:11:00,
2013-01-27 17:16:00,31.1,20.0,30.49,ESE,113,0.0,3.0,63,0.00,,,0.02,WeatherCatV1.02B3,2013-01-27 22:16:00,
2013-01-27 17:21:00,31.0,19.9,30.49,SE,136,0.0,3.0,63,0.00,,,0.02,WeatherCatV1.02B3,2013-01-27 22:21:00,
2013-01-27 17:26:00,31.0,19.9,30.48,SE,128,2.0,3.0,63,0.00,,,0.02,WeatherCatV1.02B3,2013-01-27 22:26:00,
2013-01-27 17:31:00,31.1,19.6,30.48,ESE,121,0.0,4.0,62,0.00,,,0.02,WeatherCatV1.02B3,2013-01-27 22:31:00,
2013-01-27 17:36:00,30.9,19.8,30.48,ESE,117,2.0,4.0,63,0.00,,,0.02,WeatherCatV1.02B3,2013-01-27 22:36:00,
2013-01-27 17:41:00,30.8,19.7,30.48,SSE,159,1.0,1.0,63,0.00,,,0.02,WeatherCatV1.02B3,2013-01-27 22:41:00,
2013-01-27 17:46:00,30.7,19.6,30.48,ESE,114,2.0,3.0,63,0.00,,,0.02,WeatherCatV1.02B3,2013-01-27 22:46:00,
2013-01-27 17:52:00,30.7,19.6,30.48,SE,145,0.0,3.0,63,0.00,,,0.02,WeatherCatV1.02B3,2013-01-27 22:52:00,
2013-01-27 17:57:00,30.6,19.5,30.48,SE,128,0.0,3.0,63,0.00,,,0.02,WeatherCatV1.02B3,2013-01-27 22:57:00,
2013-01-27 18:03:00,30.7,19.6,30.49,SE,131,0.0,0.0,63,0.00,,,0.02,WeatherCatV1.02B3,2013-01-27 23:03:00,
2013-01-27 18:08:00,30.6,19.5,30.49,SE,144,0.0,0.0,63,0.00,,,0.02,WeatherCatV1.02B3,2013-01-27 23:08:00,
2013-01-27 18:13:00,30.6,19.5,30.48,ESE,111,0.0,0.0,63,0.00,,,0.02,WeatherCatV1.02B3,2013-01-27 23:13:00,
2013-01-27 18:18:00,30.5,19.8,30.48,SSE,161,0.0,3.0,64,0.00,,,0.02,WeatherCatV1.02B3,2013-01-27 23:18:00,
2013-01-27 18:23:00,30.6,19.9,30.49,SE,135,0.0,2.0,64,0.00,,,0.02,WeatherCatV1.02B3,2013-01-27 23:23:00,
2013-01-27 18:28:00,30.6,19.5,30.48,SE,126,0.0,3.0,63,0.00,,,0.02,WeatherCatV1.02B3,2013-01-27 23:28:00,
2013-01-27 18:33:00,30.6,19.9,30.49,ESE,119,0.0,1.0,64,0.00,,,0.02,WeatherCatV1.02B3,2013-01-27 23:33:00,
2013-01-27 18:38:00,30.6,19.9,30.49,ESE,120,0.0,0.0,64,0.00,,,0.02,WeatherCatV1.02B3,2013-01-27 23:38:00,
2013-01-27 18:43:00,30.6,19.9,30.49,ESE,120,0.0,0.0,64,0.00,,,0.02,WeatherCatV1.02B3,2013-01-27 23:43:00,
2013-01-27 18:48:00,30.8,20.1,30.49,ESE,120,2.0,4.0,64,0.00,,,0.02,WeatherCatV1.02B3,2013-01-27 23:48:00,
2013-01-27 18:53:00,30.9,19.8,30.49,SE,131,0.0,0.0,63,0.00,,,0.02,WeatherCatV1.02B3,2013-01-27 23:53:00,
2013-01-27 18:58:00,30.9,20.2,30.49,SE,131,2.0,4.0,64,0.00,,,0.02,WeatherCatV1.02B3,2013-01-27 23:58:00,
2013-01-27 19:03:00,31.1,20.0,30.49,ESE,119,0.0,3.0,63,0.00,,,0.02,WeatherCatV1.02B3,2013-01-28 00:03:00,
2013-01-27 19:08:00,31.1,20.0,30.49,SE,126,0.0,3.0,63,0.00,,,0.02,WeatherCatV1.02B3,2013-01-28 00:08:00,
2013-01-27 19:13:00,31.1,20.0,30.49,SE,126,1.0,3.0,63,0.00,,,0.02,WeatherCatV1.02B3,2013-01-28 00:13:00,
2013-01-27 19:18:00,31.3,20.2,30.49,ESE,117,0.0,3.0,63,0.00,,,0.02,WeatherCatV1.02B3,2013-01-28 00:18:00,
2013-01-27 19:23:00,31.3,20.2,30.48,ESE,119,2.0,3.0,63,0.00,,,0.02,WeatherCatV1.02B3,2013-01-28 00:23:00,
2013-01-27 19:28:00,31.4,19.9,30.48,SE,145,0.0,4.0,62,0.00,,,0.02,WeatherCatV1.02B3,2013-01-28 00:28:00,
2013-01-27 19:33:00,31.3,20.2,30.47,South,182,0.0,1.0,63,0.00,,,0.02,WeatherCatV1.02B3,2013-01-28 00:33:00,
2013-01-27 19:38:00,31.3,20.2,30.47,SE,132,1.0,3.0,63,0.00,,,0.02,WeatherCatV1.02B3,2013-01-28 00:38:00,
2013-01-27 19:43:00,31.3,20.2,30.48,SE,140,2.0,5.0,63,0.00,,,0.02,WeatherCatV1.02B3,2013-01-28 00:43:00,
2013-01-27 19:48:00,31.3,20.2,30.48,SE,132,0.0,2.0,63,0.00,,,0.02,WeatherCatV1.02B3,2013-01-28 00:48:00,
2013-01-27 19:53:00,31.3,20.2,30.48,South,175,0.0,2.0,63,0.00,,,0.02,WeatherCatV1.02B3,2013-01-28 00:53:00,
2013-01-27 19:58:00,31.3,20.6,30.48,ESE,111,0.0,0.0,64,0.00,,,0.02,WeatherCatV1.02B3,2013-01-28 00:58:00,
2013-01-27 20:03:00,31.3,20.6,30.47,East,98,0.0,0.0,64,0.00,,,0.02,WeatherCatV1.02B3,2013-01-28 01:03:00,
2013-01-27 20:08:00,31.3,20.6,30.48,SE,134,0.0,0.0,64,0.00,,,0.02,WeatherCatV1.02B3,2013-01-28 01:08:00,
2013-01-27 20:13:00,31.2,20.5,30.48,South,180,0.0,0.0,64,0.00,,,0.02,WeatherCatV1.02B3,2013-01-28 01:13:00,
2013-01-27 20:18:00,31.3,20.6,30.47,ESE,109,1.0,2.0,64,0.00,,,0.02,WeatherCatV1.02B3,2013-01-28 01:18:00,
2013-01-27 20:23:00,31.4,20.7,30.47,ESE,113,0.0,3.0,64,0.00,,,0.02,WeatherCatV1.02B3,2013-01-28 01:23:00,
2013-01-27 20:28:00,31.6,20.5,30.47,SE,124,3.0,3.0,63,0.00,,,0.02,WeatherCatV1.02B3,2013-01-28 01:28:00,
2013-01-27 20:33:00,31.6,20.5,30.47,SE,132,0.0,4.0,63,0.00,,,0.02,WeatherCatV1.02B3,2013-01-28 01:33:00,
2013-01-27 20:38:00,31.7,20.6,30.46,SE,134,2.0,3.0,63,0.00,,,0.02,WeatherCatV1.02B3,2013-01-28 01:38:00,
2013-01-27 20:43:00,31.7,20.6,30.46,SSE,161,1.0,11.0,63,0.00,,,0.02,WeatherCatV1.02B3,2013-01-28 01:43:00,
2013-01-27 20:48:00,31.9,20.8,30.46,SE,130,3.0,7.0,63,0.00,,,0.02,WeatherCatV1.02B3,2013-01-28 01:48:00,
2013-01-27 20:53:00,31.9,20.8,30.45,SE,131,2.0,4.0,63,0.00,,,0.02,WeatherCatV1.02B3,2013-01-28 01:53:00,
2013-01-27 20:58:00,32.0,20.9,30.45,ESE,123,0.0,1.0,63,0.00,,,0.02,WeatherCatV1.02B3,2013-01-28 01:58:00,
2013-01-27 21:03:00,32.0,20.9,30.44,ESE,107,3.0,4.0,63,0.00,,,0.02,WeatherCatV1.02B3,2013-01-28 02:03:00,
2013-01-27 21:08:00,32.0,20.9,30.44,SE,139,0.0,4.0,63,0.00,,,0.02,WeatherCatV1.02B3,2013-01-28 02:08:00,
2013-01-27 21:13:00,32.0,20.9,30.44,SSE,148,0.0,5.0,63,0.00,,,0.02,WeatherCatV1.02B3,2013-01-28 02:13:00,
2013-01-27 21:18:00,32.1,20.6,30.44,ESE,114,0.0,3.0,62,0.00,,,0.02,WeatherCatV1.02B3,2013-01-28 02:18:00,
2013-01-27 21:23:00,32.1,20.9,30.44,SSE,155,1.0,3.0,63,0.00,,,0.02,WeatherCatV1.02B3,2013-01-28 02:23:00,
2013-01-27 21:28:00,32.0,20.9,30.44,SE,132,0.0,2.0,63,0.00,,,0.02,WeatherCatV1.02B3,2013-01-28 02:28:00,
2013-01-27 21:33:00,32.0,20.9,30.43,SSE,154,0.0,3.0,63,0.00,,,0.02,WeatherCatV1.02B3,2013-01-28 02:33:00,
2013-01-27 21:39:00,32.1,20.9,30.44,SE,137,0.0,0.0,63,0.00,,,0.02,WeatherCatV1.02B3,2013-01-28 02:39:00,
2013-01-27 21:44:00,32.2,20.7,30.44,ESE,119,0.0,5.0,62,0.00,,,0.02,WeatherCatV1.02B3,2013-01-28 02:44:00,
2013-01-27 21:49:00,32.1,20.9,30.44,SE,132,0.0,5.0,63,0.00,,,0.02,WeatherCatV1.02B3,2013-01-28 02:49:00,
2013-01-27 21:54:00,32.1,20.9,30.44,SE,138,0.0,3.0,63,0.00,,,0.02,WeatherCatV1.02B3,2013-01-28 02:54:00,
2013-01-27 21:59:00,32.1,20.9,30.44,SE,137,2.0,2.0,63,0.00,,,0.02,WeatherCatV1.02B3,2013-01-28 02:59:00,
2013-01-27 22:04:00,32.1,21.3,30.45,SSE,155,0.0,5.0,64,0.00,,,0.02,WeatherCatV1.02B3,2013-01-28 03:04:00,
2013-01-27 22:09:00,32.1,21.3,30.45,SE,132,0.0,1.0,64,0.00,,,0.02,WeatherCatV1.02B3,2013-01-28 03:09:00,
2013-01-27 22:14:00,32.0,21.2,30.44,East,90,2.0,4.0,64,0.00,,,0.02,WeatherCatV1.02B3,2013-01-28 03:14:00,
2013-01-27 22:19:00,32.0,21.2,30.44,ESE,119,0.0,0.0,64,0.00,,,0.02,WeatherCatV1.02B3,2013-01-28 03:19:00,
2013-01-27 22:24:00,32.0,21.2,30.44,SSE,159,0.0,1.0,64,0.00,,,0.02,WeatherCatV1.02B3,2013-01-28 03:24:00,
2013-01-27 22:29:00,32.0,21.2,30.44,ESE,117,2.0,3.0,64,0.00,,,0.02,WeatherCatV1.02B3,2013-01-28 03:29:00,
2013-01-27 22:34:00,32.0,21.6,30.43,SE,141,0.0,5.0,65,0.00,,,0.02,WeatherCatV1.02B3,2013-01-28 03:34:00,
2013-01-27 22:39:00,31.9,21.5,30.43,ESE,123,3.0,3.0,65,0.00,,,0.02,WeatherCatV1.02B3,2013-01-28 03:39:00,
2013-01-27 22:44:00,31.6,22.3,30.43,SSW,206,0.0,6.0,68,0.00,,,0.02,WeatherCatV1.02B3,2013-01-28 03:44:00,
2013-01-27 22:49:00,31.1,22.8,30.43,ESE,107,0.0,2.0,71,0.00,,,0.02,WeatherCatV1.02B3,2013-01-28 03:49:00,
2013-01-27 22:55:00,30.5,23.5,30.43,SE,125,5.0,5.0,75,0.00,,,0.02,WeatherCatV1.02B3,2013-01-28 03:55:00,
2013-01-27 23:00:00,30.0,24.0,30.42,SE,145,0.0,1.0,78,0.00,,,0.02,WeatherCatV1.02B3,2013-01-28 04:00:00,
2013-01-27 23:05:00,29.7,24.3,30.42,ESE,117,0.0,4.0,80,0.00,,,0.02,WeatherCatV1.02B3,2013-01-28 04:05:00,
2013-01-27 23:10:00,29.5,24.4,30.41,SE,130,0.0,1.0,81,0.00,,,0.02,WeatherCatV1.02B3,2013-01-28 04:10:00,
2013-01-27 23:15:00,29.4,24.9,30.41,SE,134,0.0,6.0,83,0.00,,,0.02,WeatherCatV1.02B3,2013-01-28 04:15:00,
2013-01-27 23:20:00,29.4,25.2,30.40,SE,124,0.0,2.0,84,0.00,,,0.02,WeatherCatV1.02B3,2013-01-28 04:20:00,
2013-01-27 23:25:00,29.4,25.5,30.40,ESE,120,0.0,0.0,85,0.00,,,0.02,WeatherCatV1.02B3,2013-01-28 04:25:00,
2013-01-27 23:30:00,29.4,25.5,30.39,ESE,111,2.0,6.0,85,0.00,,,0.02,WeatherCatV1.02B3,2013-01-28 04:30:00,
2013-01-27 23:35:00,29.5,25.6,30.39,SE,132,0.0,0.0,85,0.00,,,0.02,WeatherCatV1.02B3,2013-01-28 04:35:00,
2013-01-27 23:40:00,29.6,25.7,30.39,East,92,3.0,6.0,85,0.00,,,0.02,WeatherCatV1.02B3,2013-01-28 04:40:00,
2013-01-27 23:45:00,29.6,25.9,30.38,SE,130,1.0,4.0,86,0.00,,,0.02,WeatherCatV1.02B3,2013-01-28 04:45:00,
2013-01-27 23:50:00,29.7,26.0,30.38,SE,132,0.0,4.0,86,0.00,,,0.02,WeatherCatV1.02B3,2013-01-28 04:50:00,
2013-01-27 23:55:00,29.8,26.1,30.38,SE,142,0.0,4.0,86,0.00,,,0.02,WeatherCatV1.02B3,2013-01-28 04:55:00,